Temp
-6 -7 -6 -7 -6 -6 -5 -6 -5 -7 -7 -7 -5 -4 -7 -5 -6 -5 -6 -5 -6 -5 -5 -5 -5 -5 -5 -5 -5 -4 -4 -3 -3 -3 -3 -3 -3 -3 -3 -4 -4 -4 -4 -4 -5 -5 -5 -5 -5
-7 -7 -7 -7 -6 -6 -6 -6 -6 -7 -7 -6 -5 -5 -6 -5 -6 -6 -6 -6 -6 -6 -5 -5 -5 -6 -6 -6 -5 -5 -4 -4 -4 -3 -3 -3 -3 -3 -3 -4 -4 -4 -4 -5 -5 -5 -5 -6 -6
-7 -7 -7 -7 -6 -6 -6 -8 -8 -7 -7 -6 -5 -5 -6 -5 -5 -5 -5 -5 -6 -6 -6 -6 -6 -6 -6 -6 -6 -5 -5 -5 -4 -4 -4 -4 -4 -4 -4 -4 -4 -5 -5 -5 -5 -6 -6 -6 -6
-8 -8 -7 -6 -6 -5 -6 -7 -7 -7 -8 -7 -7 -7 -6 -5 -5 -6 -6 -6 -6 -6 -6 -6 -6 -6 -5 -5 -6 -6 -6 -5 -5 -5 -4 -4 -4 -4 -4 -5 -5 -5 -5 -5 -6 -6 -6 -6 -6
-8 -8 -7 -7 -6 -5 -7 -8 -7 -8 -8 -8 -7 -7 -7 -7 -6 -6 -6 -5 -6 -6 -6 -6 -6 -6 -6 -6 -6 -6 -6 -6 -6 -6 -5 -5 -5 -5 -5 -5 -5 -5 -6 -6 -6 -6 -6 -6 -7
-8 -8 -8 -7 -7 -6 -8 -8 -7 -7 -8 -8 -9 -8 -8 -5 -7 -7 -7 -7 -6 -6 -6 -6 -6 -6 -6 -6 -6 -6 -6 -7 -6 -6 -6 -6 -6 -6 -6 -6 -6 -6 -6 -7 -7 -7 -7 -7 -7
-8 -8 -8 -8 -7 -7 -8 -7 -7 -8 -8 -8 -7 -8 -8 -7 -5 -6 -7 -7 -6 -7 -7 -7 -7 -6 -6 -6 -6 -7 -7 -7 -7 -7 -7 -7 -7 -6 -6 -6 -6 -6 -6 -7 -7 -7 -7 -7 -7
-8 -9 -8 -8 -8 -8 -9 -8 -9 -9 -8 -8 -8 -8 -8 -5 -5 -6 -7 -7 -6 -7 -7 -7 -7 -7 -7 -7 -7 -7 -7 -7 -7 -7 -7 -7 -7 -7 -7 -7 -7 -7 -7 -7 -7 -7 -7 -7 -7
-10 -9 -8 -8 -8 -9 -10 -9 -10 -9 -9 -8 -8 -8 -8 -6 -7 -7 -8 -8 -7 -7 -7 -7 -7 -7 -7 -8 -8 -8 -8 -8 -8 -8 -8 -8 -8 -7 -7 -7 -7 -8 -8 -8 -8 -8 -8 -8 -8
-10 -9 -8 -8 -8 -10 -11 -10 -11 -9 -9 -8 -8 -7 -8 -8 -9 -8 -8 -8 -8 -8 -7 -7 -7 -8 -8 -8 -8 -8 -8 -8 -9 -9 -9 -9 -9 -9 -8 -8 -8 -8 -9 -8 -8 -8 -8 -9 -9
-11 -9 -9 -9 -9 -9 -11 -11 -10 -10 -8 -9 -8 -8 -8 -9 -8 -8 -8 -8 -8 -8 -7 -7 -7 -8 -9 -8 -8 -8 -9 -9 -8 -9 -9 -9 -9 -9 -9 -9 -9 -9 -9 -9 -9 -9 -9 -9 -9
-11 -10 -10 -10 -10 -12 -11 -11 -11 -10 -9 -9 -10 -10 -9 -7 -8 -8 -8 -8 -6 -8 -8 -8 -8 -8 -9 -8 -9 -9 -9 -9 -9 -9 -9 -9 -9 -9 -9 -10 -9 -9 -9 -9 -9 -9 -10 -10 -10
-11 -11 -11 -10 -10 -13 -11 -10 -10 -8 -8 -8 -8 -8 -8 -7 -7 -7 -9 -9 -9 -9 -6 -7 -8 -9 -9 -9 -9 -9 -9 -9 -9 -9 -9 -9 -9 -9 -9 -9 -9 -10 -10 -9 -9 -9 -9 -10 -10
-12 -11 -11 -11 -11 -10 -9 -9 -9 -8 -9 -7 -8 -8 -7 -8 -8 -8 -8 -9 -9 -9 -9 -7 -7 -9 -9 -9 -10 -10 -10 -10 -10 -10 -10 -10 -10 -10 -9 -10 -10 -9 -9 -9 -9 -9 -9 -9 -9
-12 -12 -11 -11 -10 -10 -9 -9 -9 -9 -9 -8 -8 -8 -8 -8 -8 -9 -8 -8 -9 -10 -8 -8 -8 -9 -10 -10 -10 -10 -11 -11 -11 -11 -11 -11 -11 -11 -11 -11 -10 -10 -10 -9 -9 -10 -9 -9 -9
-11 -11 -11 -11 -11 -10 -10 -9 -9 -10 -9 -9 -8 -9 -9 -9 -9 -9 -8 -9 -9 -10 -10 -10 -9 -9 -11 -11 -10 -10 -10 -10 -10 -11 -11 -11 -11 -11 -11 -11 -10 -11 -11 -10 -10 -11 -10 -10 -9
-12 -11 -11 -11 -12 -11 -11 -10 -10 -11 -10 -9 -8 -8 -9 -9 -9 -9 -9 -9 -10 -9 -10 -11 -11 -10 -11 -11 -11 -10 -10 -10 -11 -11 -11 -11 -11 -12 -11 -11 -11 -11 -11 -11 -11 -10 -11 -11 -11
-12 -12 -12 -12 -12 -13 -11 -10 -10 -11 -11 -10 -9 -9 -10 -9 -10 -10 -10 -9 -10 -9 -9 -10 -10 -10 -11 -11 -11 -11 -10 -11 -11 -11 -11 -12 -12 -12 -12 -11 -11 -11 -11 -11 -11 -11 -11 -11 -11
-14 -14 -14 -13 -13 -14 -13 -11 -11 -11 -11 -10 -10 -9 -10 -10 -10 -10 -10 -10 -9 -9 -9 -10 -10 -9 -10 -10 -10 -10 -10 -11 -11 -11 -11 -12 -11 -12 -13 -12 -12 -11 -11 -11 -10 -10 -10 -10 -11
-13 -14 -13 -14 -14 -14 -14 -11 -10 -10 -11 -11 -10 -9 -9 -10 -10 -9 -9 -10 -9 -9 -9 -9 -9 -10 -9 -10 -10 -10 -10 -11 -11 -11 -11 -11 -12 -12 -13 -13 -13 -12 -11 -11 -10 -10 -9 -10 -11
-13 -12 -12 -13 -13 -14 -13 -11 -10 -10 -10 -10 -10 -10 -10 -10 -10 -10 -10 -10 -9 -9 -9 -10 -10 -9 -9 -10 -10 -10 -11 -11 -11 -11 -11 -11 -12 -12 -13 -13 -13 -13 -12 -11 -11 -11 -11 -11 -12
-13 -13 -13 -13 -14 -14 -14 -11 -12 -11 -11 -11 -11 -10 -10 -11 -10 -11 -10 -10 -10 -9 -10 -10 -10 -10 -10 -11 -11 -11 -11 -11 -11 -11 -11 -11 -11 -11 -12 -12 -12 -12 -12 -11 -11 -12 -12 -12 -12
-13 -14 -15 -15 -14 -13 -12 -14 -12 -14 -14 -14 -12 -11 -11 -11 -11 -11 -11 -10 -10 -9 -9 -11 -11 -10 -10 -11 -11 -11 -11 -11 -11 -11 -12 -12 -11 -11 -11 -11 -11 -11 -12 -12 -12 -12 -12 -13 -13
-14 -14 -15 -15 -14 -12 -13 -13 -12 -12 -14 -14 -14 -14 -12 -12 -12 -12 -11 -10 -10 -10 -10 -10 -11 -11 -11 -11 -11 -11 -11 -11 -12 -12 -12 -12 -13 -10 -10 -10 -11 -13 -14 -14 -13 -12 -13 -13 -13
-14 -14 -15 -15 -14 -13 -13 -13 -12 -13 -13 -14 -14 -15 -14 -11 -11 -11 -10 -10 -11 -11 -11 -10 -10 -11 -11 -12 -12 -11 -11 -12 -12 -12 -12 -12 -12 -11 -10 -10 -10 -11 -15 -14 -14 -14 -12 -14 -13
-15 -15 -15 -16 -15 -14 -14 -14 -13 -13 -13 -14 -14 -14 -13 -13 -12 -12 -12 -12 -12 -11 -11 -11 -11 -11 -11 -11 -11 -12 -12 -12 -12 -12 -13 -12 -12 -12 -11 -11 -10 -11 -11 -13 -13 -12 -14 -14 -15
-15 -15 -15 -15 -14 -14 -13 -13 -13 -13 -14 -14 -14 -14 -15 -14 -13 -12 -13 -13 -12 -12 -12 -11 -11 -11 -11 -11 -11 -12 -12 -12 -12 -13 -13 -13 -13 -12 -12 -12 -11 -11 -11 -11 -11 -9 -11 -15 -15
-15 -16 -15 -15 -15 -14 -14 -14 -13 -14 -14 -14 -14 -14 -14 -13 -12 -12 -13 -14 -14 -14 -13 -12 -12 -12 -11 -11 -12 -12 -12 -12 -13 -13 -13 -13 -13 -13 -12 -12 -12 -11 -11 -11 -12 -11 -6 -12 -14
-16 -16 -16 -16 -15 -15 -15 -14 -14 -14 -15 -14 -14 -14 -14 -14 -14 -13 -12 -13 -14 -14 -14 -12 -12 -12 -13 -13 -12 -12 -11 -13 -13 -13 -13 -13 -13 -13 -13 -13 -13 -12 -11 -11 -10 -12 -9 -12 -15
-16 -15 -16 -16 -15 -15 -15 -14 -15 -14 -15 -15 -14 -14 -14 -14 -14 -14 -14 -14 -14 -14 -13 -13 -13 -13 -13 -13 -13 -13 -13 -13 -14 -14 -13 -13 -13 -13 -13 -13 -13 -13 -12 -11 -11 -11 -10 -14 -16
Height
5869 5873 5875 5879 5882 5881 5887 5894 5901 5904 5903 5902 5902 5909 5903 5905 5903 5899 5905 5909 5911 5912 5913 5913 5914 5914 5915 5915 5915 5915 5915 5915 5914 5913 5913 5912 5911 5911 5910 5910 5909 5909 5909 5909 5908 5909 5909 5909 5908
5864 5867 5870 5872 5876 5877 5886 5894 5900 5903 5895 5894 5898 5906 5907 5900 5902 5902 5905 5908 5910 5911 5911 5912 5913 5913 5914 5914 5915 5915 5915 5915 5914 5913 5912 5912 5911 5911 5910 5909 5908 5908 5907 5907 5908 5908 5908 5908 5907
5858 5860 5863 5866 5869 5874 5883 5891 5893 5900 5885 5888 5897 5901 5897 5891 5899 5903 5903 5906 5907 5909 5910 5911 5911 5911 5912 5912 5913 5913 5913 5914 5914 5913 5912 5911 5910 5910 5909 5908 5907 5907 5906 5906 5907 5907 5907 5907 5905
5851 5853 5856 5856 5863 5876 5880 5884 5886 5882 5883 5885 5891 5894 5891 5893 5897 5903 5900 5902 5904 5906 5906 5908 5908 5909 5909 5910 5911 5911 5911 5911 5911 5911 5911 5910 5909 5909 5908 5907 5907 5907 5906 5906 5906 5906 5906 5905 5904
5842 5844 5847 5851 5860 5871 5874 5878 5877 5878 5880 5880 5884 5887 5881 5887 5889 5895 5896 5899 5901 5903 5904 5905 5906 5906 5906 5907 5908 5909 5909 5909 5909 5909 5909 5908 5908 5908 5907 5906 5906 5906 5906 5905 5906 5905 5904 5904 5904
5833 5838 5840 5846 5856 5865 5868 5867 5868 5873 5876 5879 5878 5884 5870 5880 5885 5889 5890 5893 5894 5898 5899 5901 5902 5903 5903 5904 5905 5906 5906 5906 5907 5907 5907 5907 5907 5907 5906 5905 5905 5905 5905 5905 5905 5904 5904 5903 5903
5823 5829 5834 5842 5850 5857 5862 5859 5862 5868 5869 5873 5874 5878 5866 5868 5881 5884 5886 5888 5888 5893 5895 5896 5897 5898 5899 5900 5901 5902 5903 5903 5904 5904 5905 5904 5904 5904 5904 5904 5903 5903 5904 5904 5904 5903 5902 5902 5902
5815 5821 5827 5834 5843 5850 5857 5854 5856 5860 5864 5859 5868 5865 5862 5858 5874 5879 5882 5883 5883 5886 5891 5891 5892 5893 5894 5895 5896 5897 5898 5899 5900 5900 5901 5902 5901 5901 5901 5901 5901 5901 5901 5902 5902 5902 5901 5901 5900
5806 5809 5816 5827 5837 5845 5849 5848 5848 5850 5851 5858 5864 5855 5855 5859 5870 5875 5875 5877 5877 5881 5885 5884 5886 5888 5889 5890 5891 5892 5893 5893 5894 5895 5896 5897 5898 5898 5898 5898 5898 5898 5898 5899 5899 5900 5899 5899 5899
5797 5801 5812 5824 5831 5836 5842 5838 5837 5845 5847 5851 5853 5851 5856 5857 5863 5866 5868 5870 5870 5874 5879 5880 5881 5882 5883 5885 5885 5886 5887 5889 5890 5890 5891 5891 5892 5893 5894 5894 5895 5895 5895 5895 5896 5897 5896 5896 5896
5792 5797 5809 5816 5822 5828 5828 5830 5828 5835 5838 5842 5849 5847 5849 5852 5852 5859 5862 5865 5865 5867 5869 5876 5877 5878 5878 5881 5881 5882 5882 5884 5885 5885 5886 5887 5888 5888 5889 5890 5890 5889 5890 5890 5891 5892 5892 5892 5892
5787 5795 5800 5807 5813 5818 5819 5825 5818 5827 5832 5838 5838 5839 5838 5838 5850 5857 5861 5861 5853 5859 5863 5866 5869 5872 5873 5875 5876 5877 5878 5879 5880 5880 5880 5881 5882 5883 5883 5885 5884 5885 5885 5885 5886 5885 5885 5885 5885
5782 5788 5793 5800 5804 5806 5805 5813 5815 5820 5827 5827 5831 5834 5834 5838 5843 5850 5852 5852 5853 5852 5850 5850 5859 5862 5863 5866 5871 5870 5872 5872 5872 5873 5875 5875 5876 5876 5877 5878 5878 5879 5880 5879 5880 5879 5880 5879 5879
5778 5782 5787 5792 5796 5796 5802 5807 5808 5817 5817 5820 5825 5824 5832 5832 5835 5838 5843 5845 5848 5846 5844 5838 5851 5853 5857 5857 5859 5861 5862 5865 5865 5866 5867 5867 5868 5869 5871 5869 5870 5870 5873 5873 5873 5873 5873 5873 5872
5773 5776 5780 5786 5789 5791 5795 5799 5800 5807 5808 5813 5815 5820 5824 5823 5829 5829 5831 5835 5839 5838 5835 5840 5843 5846 5847 5849 5849 5852 5854 5853 5856 5857 5859 5861 5860 5860 5862 5862 5861 5862 5864 5864 5866 5867 5867 5867 5867
5767 5771 5775 5780 5782 5786 5789 5793 5795 5797 5799 5803 5807 5811 5814 5815 5820 5818 5823 5826 5828 5832 5828 5828 5832 5832 5838 5840 5840 5842 5844 5845 5846 5849 5849 5853 5852 5850 5851 5852 5854 5856 5854 5855 5854 5855 5856 5857 5856
5764 5768 5771 5776 5778 5780 5782 5785 5789 5791 5791 5795 5793 5801 5806 5806 5808 5810 5812 5815 5818 5822 5825 5825 5824 5826 5829 5831 5831 5833 5834 5835 5838 5838 5840 5841 5844 5843 5840 5841 5844 5845 5845 5846 5847 5846 5846 5847 5847
5761 5764 5769 5771 5776 5774 5775 5779 5782 5784 5783 5785 5787 5793 5795 5797 5800 5801 5803 5805 5806 5809 5812 5814 5816 5819 5817 5821 5822 5822 5825 5825 5827 5828 5828 5829 5833 5835 5833 5834 5834 5834 5835 5837 5837 5837 5837 5837 5838
5758 5766 5767 5772 5773 5773 5769 5771 5773 5778 5776 5777 5780 5784 5787 5788 5790 5793 5793 5795 5797 5799 5803 5805 5802 5807 5808 5808 5810 5811 5813 5815 5815 5816 5818 5818 5821 5823 5822 5822 5823 5822 5824 5824 5825 5825 5825 5826 5825
5752 5754 5758 5761 5764 5767 5765 5762 5767 5771 5772 5770 5771 5773 5777 5780 5781 5781 5784 5786 5787 5788 5791 5794 5796 5795 5797 5799 5800 5801 5802 5802 5804 5804 5805 5807 5808 5811 5811 5811 5812 5811 5812 5812 5812 5812 5813 5813 5813
5744 5746 5749 5753 5756 5757 5756 5757 5760 5764 5765 5765 5765 5766 5766 5770 5771 5771 5773 5774 5777 5778 5779 5781 5782 5784 5784 5785 5787 5787 5789 5790 5791 5791 5794 5796 5797 5797 5800 5800 5800 5799 5798 5799 5800 5798 5800 5801 5801
5738 5742 5744 5746 5748 5749 5751 5750 5752 5755 5756 5757 5758 5758 5759 5760 5762 5761 5760 5762 5762 5764 5765 5765 5766 5771 5773 5773 5775 5775 5776 5778 5780 5780 5781 5783 5785 5786 5787 5788 5787 5787 5785 5785 5787 5786 5786 5788 5788
5733 5736 5739 5740 5738 5740 5743 5742 5747 5749 5750 5750 5749 5750 5751 5751 5751 5751 5749 5748 5747 5749 5754 5758 5755 5756 5760 5762 5763 5765 5765 5765 5767 5767 5767 5767 5768 5772 5772 5773 5774 5771 5768 5767 5770 5772 5774 5774 5775
5727 5728 5729 5730 5732 5731 5736 5737 5739 5742 5745 5746 5745 5742 5741 5744 5744 5741 5737 5738 5739 5741 5743 5745 5748 5745 5746 5748 5749 5750 5750 5751 5751 5752 5753 5754 5754 5758 5761 5763 5759 5749 5748 5752 5758 5755 5757 5760 5760
5721 5722 5723 5725 5725 5725 5733 5732 5734 5737 5738 5741 5738 5734 5732 5733 5732 5732 5732 5732 5734 5733 5731 5731 5732 5736 5738 5736 5735 5736 5736 5736 5738 5738 5738 5739 5741 5746 5748 5748 5741 5716 5720 5729 5740 5739 5736 5743 5745
5714 5716 5718 5719 5722 5725 5730 5729 5730 5731 5731 5729 5728 5724 5723 5723 5722 5722 5722 5724 5723 5721 5721 5721 5721 5720 5722 5724 5722 5721 5721 5722 5722 5723 5723 5724 5725 5730 5735 5734 5726 5718 5712 5726 5729 5718 5711 5718 5727
5708 5705 5711 5708 5708 5708 5715 5719 5721 5723 5720 5721 5720 5718 5714 5710 5711 5712 5714 5711 5708 5708 5707 5706 5706 5706 5703 5702 5705 5708 5708 5706 5707 5707 5708 5710 5711 5716 5720 5718 5713 5708 5717 5721 5723 5719 5687 5694 5711
5698 5702 5700 5700 5699 5699 5705 5711 5714 5711 5707 5707 5708 5707 5699 5698 5701 5703 5702 5700 5698 5696 5693 5691 5691 5689 5688 5687 5690 5689 5690 5690 5691 5691 5692 5692 5694 5700 5704 5705 5695 5700 5703 5702 5697 5698 5683 5675 5691
5692 5691 5692 5693 5692 5691 5694 5699 5695 5700 5697 5698 5699 5697 5692 5690 5687 5684 5686 5691 5688 5685 5679 5675 5676 5678 5676 5673 5672 5671 5670 5675 5671 5671 5671 5672 5674 5679 5686 5686 5683 5679 5686 5683 5669 5660 5676 5660 5670
5681 5682 5684 5682 5684 5684 5684 5685 5686 5689 5687 5689 5686 5686 5683 5678 5675 5673 5674 5675 5676 5672 5670 5666 5661 5662 5660 5656 5655 5654 5652 5653 5652 5651 5651 5652 5653 5657 5666 5667 5666 5664 5672 5671 5663 5664 5691 5638 5662
Wind_Speed
36 35 33 31 33 35 29 28 15 15 32 26 33 27 14 24 30 19 23 18 12 10 8 7 8 5 4 3 1 2 4 4 5 4 3 2 4 4 5 6 6 6 5 5 5 6 6 7 7
40 38 37 36 35 32 27 22 19 8 33 35 38 34 21 27 20 17 22 21 16 12 10 9 10 7 8 8 6 6 5 6 6 6 4 3 2 2 2 2 3 3 3 4 5 5 5 5 6
43 42 41 39 37 33 24 19 27 29 42 41 35 26 32 36 26 27 27 21 19 17 14 11 10 12 11 11 13 10 10 9 9 8 8 7 5 5 4 3 3 3 2 3 4 4 4 4 4
46 45 46 47 41 30 27 27 29 21 46 49 45 39 39 36 28 23 28 25 23 20 18 16 15 16 15 12 12 13 14 14 13 13 13 10 9 8 8 6 6 6 5 5 4 4 5 5 6
52 50 50 48 41 33 34 19 39 15 7 13 32 34 39 39 35 31 31 26 25 24 23 21 19 19 17 17 14 13 13 14 13 12 11 11 10 10 10 10 9 8 7 7 7 6 6 7 7
56 53 53 49 43 36 40 33 34 35 15 12 19 20 43 39 39 37 36 33 31 28 28 25 24 23 22 20 18 16 17 15 15 15 14 14 12 12 13 13 12 11 10 10 9 9 9 9 10
59 57 55 51 44 38 36 36 29 33 25 15 22 16 39 44 36 37 39 38 37 33 33 31 31 29 27 24 23 20 20 19 19 19 17 16 18 18 18 18 17 16 15 15 13 13 12 11 11
56 56 56 52 45 39 19 41 29 26 22 32 26 28 33 50 37 33 34 35 36 34 33 33 33 31 30 28 26 26 24 23 21 22 22 22 21 21 21 19 19 19 18 18 19 18 17 15 13
51 55 58 54 47 39 28 35 32 39 33 33 30 40 45 49 38 31 30 35 36 35 32 32 32 32 32 31 29 28 26 26 28 26 25 24 25 26 26 25 24 22 21 21 20 21 21 20 18
51 54 54 50 49 40 25 35 40 41 50 54 45 52 46 44 39 37 35 33 34 34 32 30 31 32 33 33 31 31 30 27 27 27 27 27 26 27 28 26 25 25 24 24 23 24 24 24 22
48 51 46 46 48 46 41 29 43 39 50 47 44 46 48 46 48 41 38 37 37 37 37 32 32 30 33 30 30 31 30 30 30 30 30 32 31 30 30 29 29 29 28 28 28 27 27 28 28
42 43 43 43 42 41 51 46 45 48 49 47 48 50 52 56 48 41 40 39 20 42 41 39 33 32 35 34 33 33 34 34 34 33 34 35 36 35 35 32 35 34 33 33 32 34 32 31 32
37 39 42 42 47 38 52 55 62 58 49 52 51 54 56 55 52 42 46 47 47 46 34 47 42 41 39 40 36 38 39 40 38 40 39 40 40 38 39 40 40 40 39 40 40 40 38 38 37
32 36 40 43 47 51 49 49 51 45 47 49 46 53 51 54 52 49 49 49 49 50 54 36 44 43 39 41 42 41 43 44 45 43 42 44 44 43 43 46 47 44 44 46 45 45 45 45 43
33 34 39 41 44 47 48 47 48 46 49 47 47 46 47 52 50 53 53 51 49 50 56 44 47 53 39 44 45 44 44 49 51 41 43 44 48 50 48 48 52 51 48 48 49 48 46 49 51
36 37 34 35 39 39 41 43 43 44 47 48 49 48 50 52 49 54 51 49 52 51 54 53 49 50 46 46 48 47 46 46 46 41 45 42 42 44 47 50 48 53 51 49 51 51 54 53 53
32 33 33 32 30 34 39 40 38 35 41 45 51 47 43 49 51 52 52 52 51 50 50 51 53 52 50 48 49 47 48 51 48 48 48 48 43 44 49 52 50 53 51 48 52 53 56 54 55
29 29 26 24 18 29 36 35 36 35 42 45 47 39 40 44 43 45 46 46 47 49 48 48 49 50 53 52 51 51 53 54 51 50 49 49 49 49 54 55 56 61 57 55 57 56 55 58 52
19 12 20 15 19 27 36 34 37 33 41 44 44 40 38 40 41 40 41 40 40 39 36 39 47 45 47 49 48 50 49 50 51 50 49 52 50 47 47 53 54 57 57 55 56 58 60 53 51
28 29 29 28 25 32 32 38 34 33 37 42 42 39 37 38 40 42 41 41 42 42 42 42 43 45 45 46 47 48 50 50 51 51 51 51 53 50 49 49 51 54 55 55 57 55 54 53 52
34 38 34 35 32 33 36 38 34 31 35 39 41 40 41 38 40 42 43 44 45 45 45 46 47 48 49 49 50 51 52 53 54 55 55 54 54 53 51 52 55 57 61 61 60 61 58 59 56
28 25 26 30 28 28 28 32 29 28 35 38 39 39 40 39 40 41 46 46 48 48 47 51 52 51 50 52 53 54 55 54 54 55 56 56 56 56 56 57 59 61 63 65 63 61 62 58 58
27 23 20 23 34 36 34 33 30 27 24 27 33 34 38 37 39 43 48 51 54 53 50 48 52 53 53 54 55 56 57 58 58 58 59 61 62 60 60 60 61 63 66 66 61 63 62 56 56
26 26 28 29 31 34 30 31 31 26 20 23 26 28 37 32 36 41 48 49 47 45 44 44 43 48 49 49 51 52 53 55 57 58 60 60 61 57 53 53 59 69 68 67 63 64 61 59 57
27 29 27 29 30 32 21 24 23 18 20 23 28 33 43 40 43 47 49 48 46 49 52 53 53 51 49 52 55 56 56 56 57 58 59 60 60 57 55 55 64 84 77 66 65 65 67 59 59
27 27 26 24 21 21 20 26 21 27 28 32 39 47 46 46 47 48 48 48 52 57 58 58 58 59 58 57 59 61 61 62 62 62 62 63 64 62 60 60 60 73 54 44 62 77 68 61 61
31 43 38 37 37 41 36 32 26 20 24 31 34 40 48 54 56 52 49 53 56 56 58 61 61 60 64 66 64 63 64 66 66 66 67 67 67 66 64 65 68 70 62 65 64 62 60 61 58
34 27 29 36 44 46 45 39 38 35 39 36 36 41 53 56 53 48 46 46 49 54 59 61 62 63 64 65 64 66 67 67 68 69 69 70 70 69 66 66 72 72 68 68 71 74 49 71 55
34 35 36 37 40 39 38 34 37 37 48 47 46 46 52 56 59 58 51 48 48 54 60 64 62 60 61 64 64 65 66 64 67 69 70 71 72 71 70 70 72 76 71 68 64 60 50 45 35
41 41 41 42 41 42 41 44 46 43 40 43 49 48 50 56 61 60 61 59 54 54 54 57 59 57 58 62 62 64 65 64 66 69 72 73 74 74 72 73 75 78 75 75 77 64 81 50 38
Wind_Direction
215 217 221 223 227 229 225 211 206 215 238 233 235 228 232 199 220 210 238 244 255 270 282 293 303 302 295 285 219 262 274 293 304 320 336 17 45 47 46 53 49 47 42 42 41 34 37 32 30
216 219 221 222 226 229 223 214 181 233 263 235 233 238 231 240 237 213 242 252 254 256 260 271 281 286 304 303 289 303 301 305 297 296 294 300 324 337 356 17 19 23 21 28 24 16 16 17 15
218 219 222 223 223 224 217 202 221 225 238 246 245 227 220 236 223 233 237 247 249 257 262 269 264 271 286 297 285 288 293 304 306 306 304 303 302 297 294 296 300 311 346 7 12 356 353 354 350
225 221 221 223 222 216 214 208 204 224 229 240 250 251 237 243 242 240 248 248 250 252 259 264 266 274 284 287 282 287 289 291 293 292 290 285 289 291 294 301 307 312 323 332 329 331 327 328 329
227 226 224 222 221 215 202 218 207 220 251 250 247 241 245 242 249 244 247 249 252 256 260 266 270 275 282 288 280 283 290 298 295 283 280 281 281 287 296 306 312 311 313 313 307 307 308 313 313
228 227 227 224 222 217 202 214 238 221 206 188 231 221 250 242 241 247 252 258 259 261 266 271 277 279 280 281 280 279 286 293 292 290 287 287 282 286 294 299 301 305 307 307 305 308 312 314 311
227 227 227 226 221 218 208 216 229 232 205 235 232 220 255 257 242 243 247 253 260 263 266 271 276 279 279 279 279 278 280 287 289 289 285 287 290 290 290 295 299 299 300 303 306 305 305 306 307
225 227 227 226 223 212 230 237 216 214 216 223 220 211 235 251 251 249 252 255 261 262 261 266 270 273 275 275 276 278 279 281 281 283 285 284 284 285 286 291 295 294 293 291 293 296 298 300 301
220 223 226 225 222 217 230 236 235 220 211 219 223 230 242 252 259 260 255 253 255 256 259 261 265 267 268 269 271 274 280 281 283 281 282 285 288 290 291 292 295 292 289 286 284 288 292 294 296
221 223 226 225 223 215 209 251 243 236 232 235 231 239 245 261 261 257 255 255 253 250 250 257 263 261 259 263 267 271 274 277 280 278 276 278 278 283 288 288 291 289 288 288 287 285 285 288 289
221 224 224 223 222 219 212 241 252 241 239 237 234 247 251 254 253 254 260 261 262 259 259 253 260 258 259 268 267 272 269 277 274 277 277 278 275 276 279 280 280 277 277 280 284 284 285 286 285
221 224 224 219 220 217 220 221 245 242 245 245 247 248 250 252 254 262 263 263 265 262 265 263 256 262 262 264 262 261 267 273 271 271 272 277 278 274 277 274 278 275 268 271 274 275 274 274 276
220 222 224 223 221 223 226 223 238 250 250 246 247 254 260 264 268 272 260 264 269 273 274 273 260 258 254 257 258 262 262 267 268 270 272 274 272 272 275 276 272 274 272 276 276 274 275 270 272
219 223 224 223 226 233 238 239 241 243 247 247 244 249 250 254 257 255 255 255 258 260 264 247 275 257 255 257 256 252 256 260 263 261 267 268 270 269 268 272 273 271 266 270 273 273 273 272 272
219 224 224 227 230 233 239 240 244 244 246 249 246 245 251 251 250 253 252 253 253 252 258 256 266 263 261 258 259 257 254 259 258 260 263 265 265 265 269 275 274 273 280 275 277 273 274 275 277
221 226 227 229 235 238 240 242 244 247 248 250 249 246 245 250 252 252 253 253 250 249 257 264 264 265 265 264 264 263 263 261 266 264 266 266 269 273 271 272 270 271 273 270 273 269 271 272 276
225 229 232 234 243 246 241 242 245 253 256 248 251 250 252 251 251 254 257 255 257 259 254 256 260 262 263 261 263 263 262 263 263 264 263 261 261 264 261 263 265 266 268 273 271 273 272 272 275
228 233 241 241 251 239 251 251 247 249 252 256 256 255 255 254 256 257 257 258 258 254 257 258 255 256 261 260 260 262 258 265 265 263 263 261 264 264 261 265 268 271 275 272 271 273 279 278 276
199 226 237 262 238 255 262 250 252 246 256 257 260 259 257 259 259 259 261 260 260 262 256 248 255 255 252 258 259 262 264 263 264 264 264 261 264 267 261 266 266 267 269 272 270 272 274 275 277
216 210 224 214 204 225 243 258 252 250 251 260 267 266 259 258 261 261 262 261 261 260 260 258 255 258 258 256 258 259 259 260 260 261 261 261 261 262 259 261 261 263 267 269 270 269 271 275 276
227 224 231 230 226 237 248 253 258 255 255 257 262 266 268 265 262 264 263 261 263 261 262 261 259 260 261 260 259 257 258 258 258 258 259 258 259 259 258 260 258 260 263 266 266 268 268 271 273
238 236 237 236 235 242 250 257 258 264 251 254 257 259 262 264 263 263 263 264 263 261 259 260 261 261 262 262 263 265 264 263 265 266 266 264 263 263 263 263 265 265 266 266 266 268 270 272 272
239 234 238 251 246 246 245 253 252 230 244 262 268 260 258 258 259 261 262 260 258 261 263 266 265 263 262 262 262 263 264 265 264 264 264 266 266 265 265 266 265 265 265 266 265 266 268 269 268
236 234 230 239 249 250 252 257 260 259 258 279 281 266 259 254 254 253 256 261 266 269 268 264 259 264 266 263 262 261 260 260 262 263 263 263 264 265 265 263 265 264 265 266 267 266 266 267 267
245 243 245 252 255 263 278 282 290 288 275 244 245 244 258 258 257 261 265 268 273 271 269 268 268 265 263 266 267 266 265 264 263 263 263 263 263 263 267 269 265 266 249 254 261 262 261 261 264
248 251 251 253 254 265 254 263 270 238 231 233 231 253 276 273 268 266 266 269 267 266 268 269 270 269 267 264 263 264 266 267 266 264 263 263 263 265 264 267 267 271 272 274 277 257 250 257 257
252 249 254 249 245 239 229 223 247 258 267 260 256 257 259 269 272 272 274 269 269 272 272 272 272 270 269 269 267 265 264 264 265 265 264 263 264 264 265 265 266 270 271 270 266 272 256 246 253
246 249 250 248 252 253 252 244 243 246 252 236 246 252 262 264 267 269 266 268 273 275 272 270 270 271 271 270 270 271 267 267 267 267 265 264 263 262 262 262 265 266 267 270 262 253 235 259 233
254 255 254 260 252 255 257 250 239 240 241 247 250 258 265 270 275 276 274 276 274 274 274 274 274 275 276 275 273 271 270 270 268 266 265 265 263 263 261 259 259 264 264 260 254 269 251 268 242
258 259 253 254 260 257 259 256 247 247 258 249 253 254 264 267 269 272 274 278 282 278 275 276 276 274 271 271 273 271 273 268 265 264 264 262 262 262 261 259 258 260 261 259 259 260 241 280 265